CZ-6A DEB, 54338

Orbit data source: Space-Track

CZ-6A DEB, 54338 is space debris in SSO originally from a launch on Fri, 11 Nov 2022 UTC launched from the Taiyaun Space Center, China (TSC). Debris objects in space refer to the collection of defunct objects orbiting the Earth. Examples of debris include non-operational satellites, rocket bodies, and fragments generated from explosions, collisions, or faulty payload assembly.

Loading next visibility...
Identifier
54338, 2022-151CH
Orbit
SSO
Country
Flag of CNCN / PRC
Related business
Manufacturer
SAST
Mission
Spacecraft
Bus & Motor
Unknown
Mass
Unknown
Launch date (UTC)
2022-11-11 (4 years ago)
Launch vehicle
Unknown
Launch site
Taiyaun Space Center, China (TSC)
Object type
Payload
Rocket body
Debris
Shape & HBR
Unknown shape, 0.2 m
Radar Cross Section
Medium (>0.1 m² and <1 m²)

Expand to show TLE details & history
Last TLE update: 2 days ago

TLE from 2 days ago
0 CZ-6A DEB
1 54338U 22151CH  26262.28302496  .00000694  00000-0  38023-3 0  9994
2 54338  98.8399 268.0146 0040698  59.3075 301.2098 14.14690541198099
Epoch: 2026-09-19T06:47Z
TLE epoch observation values (Epoch: 2026-09-19T06:47:33.356Z)
Latitude
-0.00011°
Longitude
167.93185°
Altitude
831.124 km
Speed
7.445 km/s
True Right ascension
17h 52m 03s
True Declination
0° 00' 00"
Sunlit
Object was in daylight at epoch
Visualization orbit readout
Latitude
Unknown
Longitude
Unknown
Altitude
Unknown
Speed
Unknown
Apparent Right ascension
Unknown
Apparent Declination
Unknown
Sunlit
N/A
Visualization observer readout
Local Sidereal Time
12:54:48
Azimuth
Unknown
Elevation
Unknown
Doppler factor
Unknown
Orbital elements
Apogee altitude
869.916 km
Perigee altitude
811.158 km
Semi-major axis
7,218.674 km
Eccentricity
0.00407
Inclination
98.8399°
RAAN
268.0146°
Arg. of periapsis
59.3075°
True anomaly
300.80988°
Mean anomaly
301.2098°
Eccentric anomaly
301.00994°
Mean motion
3.53881 °/min
Orbital period
101.73 mins
BSTAR
0.00038023
Loading maneuver chart data...
Computing Atmospheric mass density...
Loading historical data...
Loading historical data...
Loading historical data...
Loading historical data...
Loading historical data...
Loading historical data...
Loading historical data...

Documentation

Showing up to 5 results
|